This is the latest recevied weather packets stored in our database for station/object K4AGR-13. If no packets are shown the sender has not sent any weather packets the latest 10 day(s).
| Time | Temp. | Humidity | Pressure | Rain* | Wind** | Luminosity | Snow |
|---|---|---|---|---|---|---|---|
| 1777072103 | 27.78° C | 41% | 1010.2 hPa | 0 mm | - | 88 W/m² | - |
| 1777071799 | 27.78° C | 40% | 1010.3 hPa | 0 mm | - | 98 W/m² | - |
| 1777071496 | 28.33° C | 40% | 1010.3 hPa | 0 mm | - | 103 W/m² | - |
| 1777071195 | 28.89° C | 39% | 1010.4 hPa | 0 mm | - | 117 W/m² | - |
| 1777070892 | 28.89° C | 37% | 1010.1 hPa | 0 mm | - | 173 W/m² | - |
| 1777070589 | 28.89° C | 37% | 1010.1 hPa | 0 mm | - | 207 W/m² | - |
| 1777070289 | 29.44° C | 37% | 1010.1 hPa | 0 mm | - | 235 W/m² | - |
| 1777069983 | 29.44° C | 36% | 1010 hPa | 0 mm | - | 250 W/m² | - |
| 1777069683 | 30° C | 35% | 1010.1 hPa | 0 mm | - | 277 W/m² | - |
| 1777069378 | 30° C | 34% | 1010.1 hPa | 0 mm | - | 314 W/m² | - |
| 1777069075 | 29.44° C | 35% | 1010.2 hPa | 0 mm | - | 341 W/m² | - |
| 1777068771 | 28.89° C | 35% | 1010.1 hPa | 0 mm | - | 318 W/m² | - |
| 1777068467 | 28.33° C | 36% | 1010.3 hPa | 0 mm | - | 376 W/m² | - |
| 1777068166 | 28.33° C | 37% | 1010.2 hPa | 0 mm | - | 215 W/m² | - |
| 1777067861 | 28.89° C | 37% | 1010.3 hPa | 0 mm | - | 165 W/m² | - |
| 1777067560 | 28.89° C | 36% | 1010.2 hPa | 0 mm | - | 164 W/m² | - |
| 1777067258 | 29.44° C | 36% | 1010.3 hPa | 0 mm | - | 254 W/m² | - |
| 1777066955 | 29.44° C | 34% | 1010.3 hPa | 0 mm | - | 266 W/m² | - |
| 1777066650 | 30° C | 33% | 1010.1 hPa | 0 mm | - | 192 W/m² | - |
| 1777066346 | 30.56° C | 33% | 1010.1 hPa | 0 mm | - | 416 W/m² | - |
| 1777066041 | 30° C | 33% | 1010.1 hPa | 0 mm | - | 352 W/m² | - |
| 1777065735 | 30.56° C | 32% | 1010.3 hPa | 0 mm | - | 173 W/m² | - |
| 1777065432 | 31.11° C | 31% | 1010.3 hPa | 0 mm | - | 573 W/m² | - |
| 1777065126 | 31.11° C | 31% | 1010.5 hPa | 0 mm | - | 621 W/m² | - |
| 1777064824 | 30.56° C | 32% | 1010.3 hPa | 0 mm | - | 643 W/m² | - |
* Rain latest hour (hover to see other rain measurements)
** Current wind speed in m/s (hover to see current wind gust speed)